Guymon, OK

3:06 AM CST on February 14, 2016 (GMT -0600)
Guymon Municipal

Weather History for KGUY - March, 2014

Change the Weather History Date:

Friday, March 7, 2014

  Actual Average Record
Temperature  
Mean Temperature 49 °F 44 °F  
Max Temperature 62 °F 58 °F - ()
Min Temperature 35 °F 29 °F - ()
Degree Days  
Heating Degree Days 16 21  
Month to date heating degree days 220 156  
Since 1 July heating degree days 3786 3623  
Cooling Degree Days 0 0  
Month to date cooling degree days 0 0  
Year to date cooling degree days 0 0  
Moisture  
Dew Point 29 °F    
Average Humidity 55    
Maximum Humidity 76    
Minimum Humidity 34    
Precipitation  
Precipitation 0.00 in 0.05 in - ()
Month to date precipitation 0.21 0.26  
Year to date precipitation 0.55 1.13  
Snow  
Snow 0.00 in - - ()
Month to date snowfall 1.5  
Since 1 July snowfall 14.2  
Snow Depth 0.00 in    
Sea Level Pressure  
Sea Level Pressure 29.74 in    
Wind  
Wind Speed 18 mph (North)    
Max Wind Speed 30 mph    
Max Gust Speed 36 mph    
Visibility 10 miles    
Events      
T = Trace of Precipitation, MM = Missing Value Source: NWS Daily Summary

Daily Weather History Graph

Daily Weather History Graph

Search for Another Location

Airport or City:

Trip Planner

Search our weather history database for the weather conditions in past years. The results will help you decide how hot, cold, wet, or windy it might be!

Date:

Astronomy

Mar. 07, 2014 Rise Set
Actual Time 7:08 AM CST 6:46 PM CST
Civil Twilight 6:42 AM CST 7:12 PM CST
Nautical Twilight 6:12 AM CST 7:42 PM CST
Astronomical Twilight 5:42 AM CST 8:12 PM CST
Moon 11:12 AM CST (3/7) 12:43 AM CST (3/7)
Length of Visible Light 12h 29m
Length of Day
11h 37m
Waxing Crescent, 42% of the Moon is Illuminated
Mar 7
Waxing Crescent
Mar 8
First Quarter
Mar 16
Full
Mar 23
Last Quarter
Mar 30
New

Hourly Weather History & Observations

Time (CST) Temp. Windchill Dew Point Humidity Pressure Visibility Wind Dir Wind Speed Gust Speed Precip Events Conditions
12:53 AM 48.0 °F - 26.1 °F 42% 29.66 in 10.0 mi South 15.0 mph - N/A   Clear
1:53 AM 46.9 °F - 27.0 °F 46% 29.64 in 10.0 mi South 11.5 mph - N/A   Clear
2:53 AM 48.0 °F - 27.0 °F 44% 29.60 in 10.0 mi South 8.1 mph - N/A   Clear
3:53 AM 46.0 °F 43.1 °F 28.9 °F 51% 29.59 in 10.0 mi SW 5.8 mph - N/A   Clear
4:53 AM 41.0 °F 35.2 °F 28.9 °F 62% 29.58 in 10.0 mi SW 9.2 mph - N/A   Clear
5:53 AM 45.0 °F 39.3 °F 26.1 °F 48% 29.58 in 10.0 mi West 11.5 mph - N/A   Clear
6:53 AM 46.9 °F - 23.0 °F 39% 29.60 in 10.0 mi WSW 12.7 mph - N/A   Clear
7:53 AM 51.1 °F - 24.1 °F 35% 29.61 in 10.0 mi WNW 11.5 mph - N/A   Clear
8:53 AM 50.0 °F - 25.0 °F 38% 29.65 in 10.0 mi NW 11.5 mph - N/A   Clear
9:53 AM 54.0 °F - 27.0 °F 35% 29.65 in 10.0 mi North 18.4 mph - N/A   Clear
10:53 AM 55.0 °F - 28.9 °F 37% 29.68 in 10.0 mi North 24.2 mph 32.2 mph N/A   Clear
11:53 AM 55.9 °F - 30.9 °F 39% 29.68 in 10.0 mi North 25.3 mph 35.7 mph N/A   Clear
12:53 PM 57.9 °F - 32.0 °F 37% 29.69 in 10.0 mi North 23.0 mph 28.8 mph N/A   Clear
1:53 PM 61.0 °F - 33.1 °F 35% 29.67 in 10.0 mi NNE 20.7 mph 27.6 mph N/A   Clear
2:53 PM 62.1 °F - 33.1 °F 34% 29.68 in 10.0 mi North 21.9 mph 28.8 mph N/A   Clear
3:53 PM 57.9 °F - 34.0 °F 41% 29.71 in 10.0 mi NNE 21.9 mph 28.8 mph N/A   Clear
4:53 PM 54.0 °F - 35.1 °F 49% 29.77 in 10.0 mi NE 21.9 mph - N/A   Clear
5:53 PM 48.0 °F - 34.0 °F 58% 29.81 in 10.0 mi NE 25.3 mph 35.7 mph N/A   Clear
6:53 PM 42.1 °F 32.8 °F 32.0 °F 67% 29.89 in 10.0 mi NNE 21.9 mph 27.6 mph N/A   Partly Cloudy
7:10 PM 42.1 °F 33.3 °F 32.0 °F 67% 29.92 in 10.0 mi NNE 19.6 mph 29.9 mph N/A   Mostly Cloudy
7:53 PM 39.9 °F 30.2 °F 32.0 °F 73% 29.94 in 10.0 mi NNE 20.7 mph 29.9 mph N/A   Overcast
8:53 PM 39.0 °F 29.3 °F 30.9 °F 73% 29.95 in 10.0 mi NNE 19.6 mph 31.1 mph N/A   Overcast
9:53 PM 39.0 °F 28.3 °F 30.0 °F 70% 29.96 in 10.0 mi NNE 24.2 mph 32.2 mph N/A   Overcast
10:53 PM 37.9 °F 27.6 °F 27.0 °F 65% 30.01 in 10.0 mi NNE 20.7 mph 27.6 mph N/A   Overcast
11:53 PM 36.0 °F 24.7 °F 26.1 °F 67% 30.06 in 10.0 mi North 21.9 mph 32.2 mph N/A   Overcast